Tracking 30970 objects as of 3-Jul-2025
HD Live streaming from Space Station
objects crossing your sky now

FREGAT DEB

Track FREGAT DEB now!
10-day predictions


NORAD ID: 46006
Int'l Code: 2011-037HH
Perigee: 339.7 km
Apogee: 3,015.3 km
Inclination: 51.4 °
Period: 119.8 minutes
Semi major axis: 8048 km
RCS: Unknown
Launch date: July 18, 2011
Source: Commonwealth of Independent States (former USSR) (CIS)
Launch site: TYURATAM MISSILE AND SPACE COMPLEX (TTMTR)

Note: This is SATELLITE DEBRIS
Your satellite tracking list
COBE
Track 1 satellite(s)




NASA's NSSDC Master Catalog

Two Line Element Set (TLE):
1 46006U 11037HH  25183.30403343  .00007206  00000-0  45261-3 0  9993
2 46006  51.4280  49.3574 1662193 236.4340 106.6832 12.02350350208445
Source of the keplerian elements: AFSPC